When you browse on this site, cookies collect data to enhance your experience and personalize the content and advertising you see.
Visit our Privacy Policy to learn more. By continuing to use the site, you agree to this use of cookies and data.
  • In Lithuania
  • List of Countries
  • For 7 days
  • Water Temperature
  • Weather Map
  • Weather Widgets
  • user-avatar
    Login

    Hourly Weather Portoroz

    Today, 30 March, Monday

    Time Temperature Precipitation Wind Pressure Humidity
    00:00 +10°C° 0 mm 2 mps 755 mmHg 74%
    01:00 +10°C° 0 mm 3 mps 755 mmHg 76%
    02:00 +9°C° 0 mm 3 mps 755 mmHg 77%
    03:00 +9°C° 0 mm 3 mps 755 mmHg 78%
    04:00 +7°C° 0 mm 4 mps 755 mmHg 79%
    05:00 +7°C° 0 mm 4 mps 755 mmHg 77%
    06:00 +7°C° 0 mm 5 mps 756 mmHg 74%
    07:00 +7°C° 0 mm 6 mps 756 mmHg 70%
    08:00 +8°C° 0 mm 6 mps 756 mmHg 65%
    09:00 +9°C° 0 mm 6 mps 757 mmHg 60%
    10:00 +10°C° 0 mm 6 mps 757 mmHg 55%
    11:00 +10°C° 0 mm 7 mps 757 mmHg 53%
    12:00 +11°C° 0 mm 7 mps 757 mmHg 51%
    13:00 +11°C° 0 mm 7 mps 757 mmHg 50%
    14:00 +10°C° 0 mm 7 mps 757 mmHg 51%
    15:00 +10°C° 0 mm 7 mps 757 mmHg 52%
    16:00 +9°C° 0 mm 7 mps 757 mmHg 54%
    17:00 +6°C° 0.1 mm 7 mps 757 mmHg 60%
    18:00 +5°C° 0.1 mm 8 mps 758 mmHg 67%
    19:00 +2°C° 0.1 mm 8 mps 758 mmHg 74%
    20:00 +2°C° 0.2 mm 9 mps 759 mmHg 71%
    21:00 +1°C° 0.2 mm 9 mps 759 mmHg 68%
    22:00 +1°C° 0.2 mm 9 mps 760 mmHg 65%
    23:00 +1°C° 0 mm 9 mps 760 mmHg 58%

    Tomorrow, 31 March, Tuesday

    Time Temperature Precipitation Wind Pressure Humidity
    00:00 +1°C° 0 mm 8 mps 761 mmHg 51%
    01:00 +1°C° 0 mm 8 mps 761 mmHg 44%
    02:00 +1°C° 0 mm 8 mps 761 mmHg 44%
    03:00 0°C° 0 mm 7 mps 761 mmHg 43%
    04:00 0°C° 0 mm 7 mps 761 mmHg 43%
    05:00 0°C° 0 mm 7 mps 761 mmHg 42%
    06:00 0°C° 0 mm 8 mps 761 mmHg 41%
    07:00 0°C° 0 mm 8 mps 761 mmHg 40%
    08:00 +2°C° 0 mm 8 mps 761 mmHg 37%
    09:00 +4°C° 0 mm 7 mps 761 mmHg 33%
    10:00 +5°C° 0 mm 7 mps 761 mmHg 30%
    11:00 +6°C° 0 mm 7 mps 761 mmHg 28%
    12:00 +8°C° 0 mm 7 mps 761 mmHg 27%
    13:00 +9°C° 0 mm 7 mps 761 mmHg 26%
    14:00 +9°C° 0 mm 6 mps 760 mmHg 26%
    15:00 +9°C° 0 mm 6 mps 760 mmHg 26%
    16:00 +9°C° 0 mm 5 mps 760 mmHg 26%
    17:00 +7°C° 0 mm 5 mps 760 mmHg 32%
    18:00 +5°C° 0 mm 4 mps 761 mmHg 38%
    19:00 +4°C° 0 mm 4 mps 761 mmHg 43%
    20:00 +3°C° 0 mm 4 mps 762 mmHg 45%
    21:00 +3°C° 0 mm 4 mps 762 mmHg 47%
    22:00 +1°C° 0 mm 4 mps 763 mmHg 49%
    23:00 +1°C° 0 mm 4 mps 763 mmHg 52%

    Day after tomorrow, 1 April, Wednesday

    Time Temperature Precipitation Wind Pressure Humidity
    00:00 +1°C° 0 mm 4 mps 763 mmHg 55%
    01:00 0°C° 0 mm 4 mps 763 mmHg 58%
    02:00 0°C° 0 mm 4 mps 763 mmHg 60%
    03:00 0°C° 0 mm 4 mps 762 mmHg 63%
    04:00 0°C° 0 mm 4 mps 762 mmHg 66%
    05:00 +1°C° 0 mm 3 mps 762 mmHg 64%
    06:00 +2°C° 0 mm 3 mps 762 mmHg 63%
    07:00 +2°C° 0 mm 3 mps 762 mmHg 61%
    08:00 +4°C° 0 mm 3 mps 762 mmHg 51%
    09:00 +7°C° 0 mm 2 mps 761 mmHg 42%
    10:00 +9°C° 0 mm 2 mps 761 mmHg 32%
    11:00 +10°C° 0 mm 2 mps 761 mmHg 31%
    12:00 +11°C° 0 mm 3 mps 761 mmHg 30%
    13:00 +12°C° 0 mm 3 mps 760 mmHg 29%
    14:00 +11°C° 0 mm 3 mps 760 mmHg 32%
    15:00 +11°C° 0 mm 4 mps 759 mmHg 35%
    16:00 +10°C° 0 mm 4 mps 758 mmHg 38%
    17:00 +9°C° 0 mm 3 mps 758 mmHg 46%
    18:00 +7°C° 0 mm 3 mps 759 mmHg 54%
    19:00 +5°C° 0 mm 2 mps 759 mmHg 62%
    20:00 +5°C° 0 mm 2 mps 759 mmHg 65%
    21:00 +4°C° 0 mm 2 mps 759 mmHg 67%
    22:00 +4°C° 0 mm 2 mps 759 mmHg 70%
    23:00 +3°C° 0 mm 2 mps 759 mmHg 69%

    2 April, Thursday

    Time Temperature Precipitation Wind Pressure Humidity
    00:00 +3°C° 0 mm 2 mps 759 mmHg 69%
    01:00 +3°C° 0 mm 2 mps 759 mmHg 69%
    02:00 +3°C° 0 mm 2 mps 758 mmHg 68%
    03:00 +2°C° 0 mm 2 mps 758 mmHg 66%
    04:00 +2°C° 0 mm 2 mps 757 mmHg 65%
    05:00 +3°C° 0 mm 2 mps 757 mmHg 60%
    06:00 +4°C° 0 mm 2 mps 757 mmHg 55%
    07:00 +4°C° 0 mm 2 mps 757 mmHg 50%
    08:00 +7°C° 0 mm 2 mps 756 mmHg 44%
    09:00 +11°C° 0 mm 1 mps 756 mmHg 37%
    10:00 +14°C° 0 mm 1 mps 756 mmHg 30%
    11:00 +14°C° 0 mm 2 mps 756 mmHg 31%
    12:00 +14°C° 0 mm 3 mps 755 mmHg 32%
    13:00 +14°C° 0 mm 3 mps 755 mmHg 32%
    14:00 +13°C° 0 mm 3 mps 755 mmHg 35%
    15:00 +13°C° 0 mm 3 mps 754 mmHg 38%
    16:00 +12°C° 0 mm 3 mps 754 mmHg 42%
    17:00 +10°C° 0 mm 2 mps 754 mmHg 48%
    18:00 +8°C° 0 mm 2 mps 754 mmHg 55%
    19:00 +7°C° 0 mm 1 mps 754 mmHg 62%
    20:00 +7°C° 0 mm 1 mps 754 mmHg 63%
    21:00 +7°C° 0 mm 1 mps 755 mmHg 63%
    22:00 +6°C° 0 mm 1 mps 755 mmHg 64%
    23:00 +6°C° 0 mm 1 mps 755 mmHg 64%

    3 April, Friday

    Time Temperature Precipitation Wind Pressure Humidity
    00:00 +6°C° 0 mm 1 mps 755 mmHg 64%
    01:00 +5°C° 0 mm 1 mps 755 mmHg 64%
    02:00 +5°C° 0 mm 1 mps 755 mmHg 64%
    03:00 +5°C° 0 mm 1 mps 755 mmHg 64%
    04:00 +5°C° 0 mm 1 mps 754 mmHg 63%
    05:00 +5°C° 0 mm 2 mps 755 mmHg 61%
    06:00 +5°C° 0 mm 2 mps 755 mmHg 60%
    07:00 +6°C° 0 mm 2 mps 755 mmHg 58%
    08:00 +10°C° 0 mm 1 mps 755 mmHg 52%
    09:00 +12°C° 0 mm 1 mps 755 mmHg 47%
    10:00 +14°C° 0 mm 1 mps 755 mmHg 41%
    11:00 +15°C° 0 mm 2 mps 755 mmHg 42%
    12:00 +15°C° 0 mm 2 mps 755 mmHg 42%
    13:00 +14°C° 0 mm 3 mps 755 mmHg 42%
    14:00 +14°C° 0 mm 3 mps 755 mmHg 43%
    15:00 +14°C° 0 mm 2 mps 755 mmHg 45%
    16:00 +14°C° 0 mm 2 mps 755 mmHg 47%
    17:00 +12°C° 0 mm 2 mps 755 mmHg 54%
    18:00 +10°C° 0 mm 1 mps 756 mmHg 62%
    19:00 +8°C° 0 mm 0 mps 757 mmHg 69%
    20:00 +8°C° 0 mm 1 mps 757 mmHg 70%
    21:00 +8°C° 0 mm 1 mps 758 mmHg 70%
    22:00 +8°C° 0 mm 1 mps 759 mmHg 71%
    23:00 +8°C° 0 mm 1 mps 759 mmHg 71%

    4 April, Saturday

    Time Temperature Precipitation Wind Pressure Humidity
    00:00 +7°C° 0 mm 1 mps 760 mmHg 71%
    01:00 +7°C° 0 mm 1 mps 760 mmHg 70%
    02:00 +6°C° 0 mm 2 mps 761 mmHg 71%
    03:00 +6°C° 0 mm 2 mps 761 mmHg 72%
    04:00 +6°C° 0 mm 2 mps 761 mmHg 73%
    05:00 +7°C° 0 mm 2 mps 762 mmHg 73%
    06:00 +7°C° 0 mm 3 mps 762 mmHg 72%
    07:00 +8°C° 0 mm 3 mps 763 mmHg 72%
    08:00 +10°C° 0 mm 3 mps 763 mmHg 63%
    09:00 +12°C° 0 mm 3 mps 763 mmHg 55%
    10:00 +14°C° 0 mm 3 mps 763 mmHg 47%
    11:00 +16°C° 0 mm 3 mps 763 mmHg 45%
    12:00 +17°C° 0 mm 4 mps 764 mmHg 44%
    13:00 +17°C° 0 mm 4 mps 764 mmHg 42%
    14:00 +17°C° 0 mm 4 mps 764 mmHg 44%
    15:00 +17°C° 0 mm 4 mps 763 mmHg 45%
    16:00 +16°C° 0 mm 3 mps 763 mmHg 47%
    17:00 +13°C° 0 mm 3 mps 763 mmHg 54%
    18:00 +12°C° 0 mm 3 mps 764 mmHg 61%
    19:00 +10°C° 0 mm 3 mps 764 mmHg 69%
    20:00 +9°C° 0 mm 3 mps 765 mmHg 70%
    21:00 +8°C° 0 mm 2 mps 765 mmHg 71%
    22:00 +8°C° 0 mm 2 mps 766 mmHg 73%
    23:00 +7°C° 0 mm 2 mps 766 mmHg 73%
    Show more